Miscellaneous Local Product
Issued by NWS North Platte, NE

Home | Current Version | Previous Version | Graphics & Text | Print | Product List | Glossary On
Versions: 1 2 3 4 5 6 7 8 9 10 11 12 13 14 15 16 17 18 19 20 21 22 23 24 25 26 27 28 29 30 31 32 33 34 35 36 37 38 39 40 41 42 43 44 45 46 47 48 49 50
000
AXUS43 KLBF 291010
MISLBF


WESTERN AND NORTH CENTRAL NEBRASKA HOURLY WEATHER ROUNDUP
NATIONAL WEATHER SERVICE NORTH PLATTE NE
500 AM CDT SUN MAY 29 2016

NOTE: "FAIR" INDICATES FEW OR NO CLOUDS BELOW 12,000 FEET WITH NO
SIGNIFICANT WEATHER AND/OR OBSTRUCTIONS TO VISIBILITY.

NOTE: STATIONS NOT REPORTING VARIABLES SUCH AS SKY/WEATHER OR
PRESSURE ARE PROVIDED BY RAWS AND APRS NETWORKS AND ARE NOT UNDER
NATIONAL WEATHER SERVICE QUALITY CONTROL.

...OBSERVATIONS IN AND NEAR THE EASTERN PANHANDLE OF NEBRASKA...

CITY           SKY/WX    TMP DP  RH WIND       PRES   REMARKS
PINE RIDGE     CLEAR     38  36  92 CALM      30.07S
CHADRON        CLEAR     40  37  89 CALM      30.07S
ALLIANCE       CLEAR     39  38  96 CALM      30.08S
SIDNEY         CLEAR     43  42  97 W3        30.11R
CRESCENT LAKE    N/A     49  48  96 CALM        N/A
BIG SPRINGS      N/A     50  48  93 CALM        N/A
$$

...OBSERVATIONS IN NORTHERN NEBRASKA AND FAR SOUTHERN SOUTH DAKOTA...

CITY           SKY/WX    TMP DP  RH WIND       PRES   REMARKS
WINNER         FAIR      56  50  80 SW7       30.01R
VALENTINE      CLEAR     49  46  90 SW6       30.05R
THEDFORD       CLEAR     49  48  95 W3        30.08R
AINSWORTH      CLEAR     53  51  94 W5        30.04S
O`NEILL        MOCLDY    58  56  93 SW3       30.02R
ORD            CLEAR     53  52  96 S6        30.02R
BROKEN BOW     CLEAR     52  50  93 CALM      30.04R
BUTTE            N/A     57  55  93 SW3         N/A
CHAMBERS         N/A     57  55  93 CALM        N/A
EWING            N/A     56  55  97 CALM        N/A
$$

...OBSERVATIONS IN SOUTHWEST NEBRASKA AND FAR NORTHEAST COLORADO...

CITY           SKY/WX    TMP DP  RH WIND       PRES   REMARKS
WRAY           FAIR      50  45  81 E3        30.09S
IMPERIAL       CLEAR     51  49  92 NW3       30.08F
OGALLALA       CLEAR     47  45  93 CALM      30.09R
NORTH PLATTE   CLEAR     48  47  96 CALM      30.08R
MCCOOK         PTCLDY    54  49  83 W5        30.06R
LEXINGTON      CLEAR     53  50  89 W5        30.05R
PAXTON           N/A     51  48  89 CALM        N/A
STAPLETON        N/A     49  47  93 CALM        N/A
GOTHENBURG       N/A     55  48  77 W3          N/A
CALLAWAY         N/A     53  49  88 CALM        N/A
$$

...OBSERVATIONS IN CENTRAL LINCOLN COUNTY AREA...

CITY           SKY/WX    TMP DP  RH WIND       PRES   REMARKS
N.P. AIRPORT   CLEAR     48  47  96 CALM      30.08R
N.P. DOWNTOWN    N/A     51  49  95 CALM        N/A
N.P. SOUTHEAST   N/A     52  50  92 CALM        N/A
N.P. HILLCREST   N/A     51  48  89 CALM        N/A
$$

...SOME OBSERVATIONS FROM AROUND THE REGION...

CITY           SKY/WX    TMP DP  RH WIND       PRES   REMARKS
DENVER         CLEAR     44  39  82 SE8       30.15R
LARAMIE        CLEAR     38  33  82 S7        30.20S WCI  33
CHEYENNE       CLEAR     43  36  76 SW6       30.16S
SCOTTSBLUFF    CLEAR     47  44  90 E5        30.08S
RAPID CITY     CLEAR     44  42  93 W5        30.06S
BISMARCK       CLEAR     50  49  96 CALM      29.99R
PIERRE         CLEAR     52  50  93 CALM      29.99R
SIOUX FALLS    CLOUDY    59  56  89 W3        29.97R
OMAHA          CLEAR     57  53  86 SE3       30.01R
GRAND ISLAND   CLEAR     57  55  93 CALM      30.04R
KANSAS CITY    CLEAR     60  57  89 S8        30.04R
WICHITA        PTCLDY    60  57  89 S3        30.07R
OKLAHOMA CITY  CLOUDY    70  69  97 S8        30.05R
DALLAS         CLOUDY    75  57  53 NW14G22   30.07R
AMARILLO       CLEAR     57  51  80 SE15      30.09R
DODGE CITY     CLOUDY    59  53  80 SE10      30.08F
HAYS           CLEAR     55  46  71 W6        30.07S
GOODLAND       CLEAR     51  47  86 S3        30.10F
$$




USA.gov is the U.S. government's official web portal to all federal, state and local government web resources and services.